DELTA 1 DEB, 9975

Orbit data source: Space-Track

DELTA 1 DEB, 9975 is space debris in SSO originally from a launch on Tue, 06 Nov 1973 UTC launched from the Air Force Western Test Range (AFWTR). Debris objects in space refer to the collection of defunct objects orbiting the Earth. Examples of debris include non-operational satellites, rocket bodies, and fragments generated from explosions, collisions, or faulty payload assembly.

Loading next visibility...
Identifier
9975, 1973-086GE
Orbit
SSO
Country
Flag of USUS
Related business
Manufacturer
Unknown
Mission
Spacecraft
Bus & Motor
Unknown
Mass
Unknown
Launch date (UTC)
1973-11-06 (53 years ago)
Launch vehicle
Unknown
Launch site
Air Force Western Test Range (AFWTR)
Object type
Payload
Rocket body
Debris
Shape & HBR
Unknown shape, 0.1 m
Radar Cross Section
Medium (>0.1 m² and <1 m²)

Expand to show TLE details & history
Last TLE update: 22 hours ago

TLE from 22 hours ago
0 DELTA 1 DEB
1 09975U 73086GE  26206.41904946  .00000996  00000-0  72725-2 0  9996
2 09975 102.4723 175.6034 0091232 139.7155  12.1192 12.44378831 98076
Epoch: 2026-07-25T10:03Z
TLE epoch observation values (Epoch: 2026-07-25T10:03:25.873Z)
Latitude
27.26778°
Longitude
-91.87222°
Altitude
1,420.953 km
Speed
7.185 km/s
True Right ascension
00h 08m 28s
True Declination
27° 08' 24"
Sunlit
Object was in daylight at epoch
Visualization orbit readout
Latitude
Unknown
Longitude
Unknown
Altitude
Unknown
Speed
Unknown
Apparent Right ascension
Unknown
Apparent Declination
Unknown
Sunlit
N/A
Visualization observer readout
Local Sidereal Time
21:19:28
Azimuth
Unknown
Elevation
Unknown
Doppler factor
Unknown
Orbital elements
Apogee altitude
1,557.436 km
Perigee altitude
1,413.949 km
Semi-major axis
7,863.83 km
Eccentricity
0.00912
Inclination
102.4723°
RAAN
175.6034°
Arg. of periapsis
139.7155°
True anomaly
12.34116°
Mean anomaly
12.1192°
Eccentric anomaly
12.22993°
Mean motion
3.11238 °/min
Orbital period
115.67 mins
BSTAR
0.0072725
Loading maneuver chart data...
Computing Atmospheric mass density...
Loading historical data...
Loading historical data...
Loading historical data...
Loading historical data...
Loading historical data...
Loading historical data...
Loading historical data...

Documentation

Showing up to 5 results
|